Check out our new BloomSky Weather System.

Active alerts


No alerts


Thunder radar  blitzortung!


Rain radar more information rain snow radar


Visit our other weather sites:

Template documentation
and downloads

And another site



Weather Underground History page Text

Daily Summary for February 15, 2017 Units:  English    Metric   Both
« Previous Day
Next Day »
Daily Weekly Monthly Yearly Custom
  High: Low: Average:
Temperature: 63.3 °F 45.5 °F 53.1 °F
Dew Point: 44.1 °F 35.8 °F 40.4 °F
Humidity: 81 % 38 % 64 %
Wind Speed: 12.0 mph 0.0 mph 3.9 mph
Wind Gust: 21.0 mph - -
Wind:- - NW
Pressure: 30.15 in 29.99 in -
Precipitation: 0.00 in    
Historical Graphs
 
 
Tabular Data for February 15, 2017
Time Temperature Dew Point Pressure Wind Wind Speed Wind Gust Humidity Rainfall Rate (Hourly)
00:00 51.1 °F 43.5 °F 30.00 in NW 9.0 mph 13.0 mph 75 % 0.00 in
00:05 51.1 °F 43.5 °F 30.00 in NNW 4.0 mph 14.0 mph 75 % 0.00 in
00:10 51.1 °F 43.7 °F 30.00 in WNW 5.0 mph 14.0 mph 76 % 0.00 in
00:15 51.1 °F 43.7 °F 30.00 in NW 7.0 mph 14.0 mph 76 % 0.00 in
00:20 51.1 °F 43.7 °F 30.00 in NW 6.0 mph 14.0 mph 76 % 0.00 in
00:25 51.1 °F 43.5 °F 30.00 in NNW 6.0 mph 18.0 mph 75 % 0.00 in
00:30 50.9 °F 43.3 °F 30.00 in WNW 7.0 mph 18.0 mph 75 % 0.00 in
00:35 50.7 °F 43.2 °F 30.00 in NNW 6.0 mph 18.0 mph 75 % 0.00 in
00:40 50.7 °F 43.2 °F 30.00 in SW 4.0 mph 15.0 mph 75 % 0.00 in
00:45 50.7 °F 43.2 °F 30.00 in NW 7.0 mph 13.0 mph 75 % 0.00 in
00:50 50.7 °F 42.8 °F 30.00 in NW 11.0 mph 13.0 mph 74 % 0.00 in
00:55 50.7 °F 42.8 °F 30.00 in NW 4.0 mph 16.0 mph 74 % 0.00 in
01:00 50.5 °F 42.3 °F 30.00 in NNW 2.0 mph 16.0 mph 73 % 0.00 in
01:05 50.5 °F 42.3 °F 30.00 in NNW 3.0 mph 16.0 mph 73 % 0.00 in
01:10 50.5 °F 42.3 °F 30.00 in NW 8.0 mph 16.0 mph 73 % 0.00 in
01:15 50.5 °F 42.6 °F 30.00 in NW 2.0 mph 16.0 mph 74 % 0.00 in
01:20 50.5 °F 42.6 °F 30.00 in WNW 4.0 mph 13.0 mph 74 % 0.00 in
01:26 50.4 °F 42.1 °F 30.00 in NW 8.0 mph 16.0 mph 73 % 0.00 in
01:31 50.4 °F 42.4 °F 30.00 in NW 5.0 mph 16.0 mph 74 % 0.00 in
01:36 50.2 °F 42.6 °F 30.00 in NW 1.0 mph 16.0 mph 75 % 0.00 in
01:41 50.2 °F 42.6 °F 30.00 in NNW 8.0 mph 15.0 mph 75 % 0.00 in
01:46 49.8 °F 42.3 °F 30.00 in NNW 9.0 mph 14.0 mph 75 % 0.00 in
01:51 49.8 °F 42.6 °F 30.00 in NW 6.0 mph 14.0 mph 76 % 0.00 in
01:56 49.8 °F 43.0 °F 30.00 in NW 5.0 mph 11.0 mph 77 % 0.00 in
02:01 49.6 °F 42.8 °F 29.99 in SSW 1.0 mph 11.0 mph 77 % 0.00 in
02:06 49.6 °F 42.4 °F 30.00 in NW 4.0 mph 13.0 mph 76 % 0.00 in
02:11 49.5 °F 42.6 °F 30.00 in West 6.0 mph 13.0 mph 77 % 0.00 in
02:16 49.5 °F 42.8 °F 30.00 in North 5.0 mph 13.0 mph 78 % 0.00 in
02:21 49.3 °F 42.4 °F 29.99 in North 8.0 mph 15.0 mph 77 % 0.00 in
02:26 48.9 °F 42.1 °F 29.99 in NNW 4.0 mph 21.0 mph 77 % 0.00 in
02:31 48.7 °F 41.9 °F 30.00 in NW 4.0 mph 21.0 mph 77 % 0.00 in
02:36 48.7 °F 41.9 °F 30.00 in NW 5.0 mph 21.0 mph 77 % 0.00 in
02:41 48.6 °F 42.1 °F 30.00 in NW 7.0 mph 17.0 mph 78 % 0.00 in
02:46 48.6 °F 41.7 °F 30.00 in NNW 5.0 mph 17.0 mph 77 % 0.00 in
02:51 48.6 °F 41.7 °F 30.00 in NNW 4.0 mph 16.0 mph 77 % 0.00 in
02:56 48.6 °F 42.1 °F 30.00 in NNW 4.0 mph 16.0 mph 78 % 0.00 in
03:01 48.6 °F 42.1 °F 30.00 in NNW 6.0 mph 16.0 mph 78 % 0.00 in
03:06 48.4 °F 42.3 °F 30.01 in WNW 4.0 mph 10.0 mph 79 % 0.00 in
03:11 48.4 °F 41.9 °F 30.01 in West 1.0 mph 9.0 mph 78 % 0.00 in
03:16 48.2 °F 42.1 °F 30.00 in NNW 5.0 mph 10.0 mph 79 % 0.00 in
03:21 48.0 °F 41.9 °F 30.01 in West 3.0 mph 10.0 mph 79 % 0.00 in
03:26 47.8 °F 41.7 °F 30.00 in NNW 6.0 mph 10.0 mph 79 % 0.00 in
03:31 47.8 °F 41.7 °F 30.00 in NNW 3.0 mph 10.0 mph 79 % 0.00 in
03:36 47.8 °F 41.9 °F 30.01 in NW 4.0 mph 10.0 mph 80 % 0.00 in
03:41 47.8 °F 41.7 °F 30.01 in North 3.0 mph 11.0 mph 79 % 0.00 in
03:46 47.7 °F 41.5 °F 30.01 in NNW 7.0 mph 12.0 mph 79 % 0.00 in
03:51 47.5 °F 41.4 °F 30.01 in WNW 3.0 mph 15.0 mph 79 % 0.00 in
03:56 47.5 °F 41.4 °F 30.00 in NW 3.0 mph 15.0 mph 79 % 0.00 in
04:01 47.5 °F 41.4 °F 30.01 in NNW 6.0 mph 15.0 mph 79 % 0.00 in
04:06 47.3 °F 41.2 °F 30.01 in NW 4.0 mph 12.0 mph 79 % 0.00 in
04:11 47.1 °F 41.0 °F 30.01 in NW 6.0 mph 12.0 mph 79 % 0.00 in
04:16 47.1 °F 41.0 °F 30.01 in NNW 8.0 mph 12.0 mph 79 % 0.00 in
04:21 47.1 °F 41.4 °F 30.02 in NNW 6.0 mph 14.0 mph 80 % 0.00 in
04:27 47.1 °F 41.4 °F 30.02 in WNW 5.0 mph 14.0 mph 80 % 0.00 in
04:32 47.1 °F 41.0 °F 30.02 in NW 3.0 mph 16.0 mph 79 % 0.00 in
04:37 47.1 °F 41.0 °F 30.02 in NW 8.0 mph 16.0 mph 79 % 0.00 in
04:42 47.1 °F 41.4 °F 30.02 in WNW 4.0 mph 16.0 mph 80 % 0.00 in
04:47 47.1 °F 41.4 °F 30.03 in NW 3.0 mph 13.0 mph 80 % 0.00 in
04:52 47.1 °F 41.4 °F 30.03 in NW 10.0 mph 13.0 mph 80 % 0.00 in
04:57 47.1 °F 41.4 °F 30.03 in WSW 2.0 mph 12.0 mph 80 % 0.00 in
05:02 46.9 °F 41.2 °F 30.04 in NW 6.0 mph 12.0 mph 80 % 0.00 in
05:07 46.9 °F 41.2 °F 30.04 in NW 4.0 mph 12.0 mph 80 % 0.00 in
05:12 46.9 °F 41.2 °F 30.04 in WNW 2.0 mph 11.0 mph 80 % 0.00 in
05:17 47.1 °F 41.0 °F 30.04 in NNW 8.0 mph 11.0 mph 79 % 0.00 in
05:22 47.1 °F 40.6 °F 30.04 in WNW 8.0 mph 11.0 mph 78 % 0.00 in
05:27 47.1 °F 40.6 °F 30.04 in NNW 2.0 mph 14.0 mph 78 % 0.00 in
05:32 47.1 °F 40.6 °F 30.04 in NW 3.0 mph 14.0 mph 78 % 0.00 in
05:37 47.1 °F 40.6 °F 30.05 in NW 2.0 mph 14.0 mph 78 % 0.00 in
05:42 47.1 °F 40.6 °F 30.05 in WNW 3.0 mph 13.0 mph 78 % 0.00 in
05:47 47.3 °F 40.8 °F 30.05 in NW 4.0 mph 11.0 mph 78 % 0.00 in
05:52 47.1 °F 40.6 °F 30.05 in WNW 5.0 mph 11.0 mph 78 % 0.00 in
05:57 47.1 °F 40.3 °F 30.05 in NNW 4.0 mph 7.0 mph 77 % 0.00 in
06:02 47.1 °F 40.6 °F 30.06 in WNW 4.0 mph 8.0 mph 78 % 0.00 in
06:07 47.1 °F 40.6 °F 30.06 in NW 5.0 mph 8.0 mph 78 % 0.00 in
06:12 47.1 °F 40.6 °F 30.06 in North 1.0 mph 11.0 mph 78 % 0.00 in
06:17 46.9 °F 40.8 °F 30.07 in NW 3.0 mph 11.0 mph 79 % 0.00 in
06:22 46.9 °F 40.8 °F 30.07 in NNW 8.0 mph 11.0 mph 79 % 0.00 in
06:27 46.9 °F 40.8 °F 30.08 in Calm   9.0 mph 79 % 0.00 in
06:32 46.9 °F 41.2 °F 30.08 in NNW 1.0 mph 9.0 mph 80 % 0.00 in
06:37 46.9 °F 41.2 °F 30.09 in NNW 5.0 mph 9.0 mph 80 % 0.00 in
06:42 46.9 °F 41.2 °F 30.09 in Calm   7.0 mph 80 % 0.00 in
06:47 46.9 °F 41.2 °F 30.09 in NW 3.0 mph 7.0 mph 80 % 0.00 in
06:52 46.9 °F 41.2 °F 30.09 in NNW 2.0 mph 7.0 mph 80 % 0.00 in
06:57 46.9 °F 41.4 °F 30.09 in NW 2.0 mph 6.0 mph 81 % 0.00 in
07:02 47.1 °F 41.4 °F 30.09 in NNW 3.0 mph 6.0 mph 80 % 0.00 in
07:07 47.1 °F 41.4 °F 30.09 in West 1.0 mph 8.0 mph 80 % 0.00 in
07:12 47.1 °F 41.5 °F 30.09 in NNW 2.0 mph 8.0 mph 81 % 0.00 in
07:17 47.1 °F 41.5 °F 30.10 in West 1.0 mph 8.0 mph 81 % 0.00 in
07:22 47.1 °F 41.5 °F 30.10 in NW 3.0 mph 6.0 mph 81 % 0.00 in
07:28 47.1 °F 41.5 °F 30.10 in NNW 2.0 mph 6.0 mph 81 % 0.00 in
07:33 47.1 °F 41.4 °F 30.10 in NW 3.0 mph 7.0 mph 80 % 0.00 in
07:38 47.1 °F 41.4 °F 30.11 in North 6.0 mph 9.0 mph 80 % 0.00 in
07:43 47.1 °F 41.4 °F 30.11 in WNW 1.0 mph 9.0 mph 80 % 0.00 in
07:48 47.3 °F 41.7 °F 30.11 in WSW 3.0 mph 9.0 mph 81 % 0.00 in
07:53 47.3 °F 41.7 °F 30.11 in Calm   9.0 mph 81 % 0.00 in
07:58 47.3 °F 41.7 °F 30.11 in NW 6.0 mph 6.0 mph 81 % 0.00 in
08:03 47.1 °F 41.5 °F 30.12 in NW 5.0 mph 8.0 mph 81 % 0.00 in
08:08 47.1 °F 41.5 °F 30.12 in North 3.0 mph 9.0 mph 81 % 0.00 in
08:13 47.3 °F 41.7 °F 30.12 in NNW 5.0 mph 9.0 mph 81 % 0.00 in
08:18 47.3 °F 41.7 °F 30.12 in North 2.0 mph 9.0 mph 81 % 0.00 in
08:23 47.5 °F 41.9 °F 30.12 in NW 4.0 mph 10.0 mph 81 % 0.00 in
08:28 47.5 °F 41.9 °F 30.12 in WNW 4.0 mph 10.0 mph 81 % 0.00 in
08:33 47.7 °F 42.1 °F 30.12 in NNW 1.0 mph 10.0 mph 81 % 0.00 in
08:38 47.7 °F 41.7 °F 30.12 in NNW 6.0 mph 10.0 mph 80 % 0.00 in
08:43 47.7 °F 41.7 °F 30.12 in NW 6.0 mph 9.0 mph 80 % 0.00 in
08:48 47.7 °F 41.7 °F 30.12 in NNW 4.0 mph 12.0 mph 80 % 0.00 in
08:53 47.7 °F 41.7 °F 30.12 in NW 2.0 mph 12.0 mph 80 % 0.00 in
08:58 47.8 °F 41.9 °F 30.12 in NW 7.0 mph 12.0 mph 80 % 0.00 in
09:03 47.8 °F 41.7 °F 30.12 in WSW 5.0 mph 13.0 mph 79 % 0.00 in
09:08 48.2 °F 42.1 °F 30.13 in NNW 9.0 mph 13.0 mph 79 % 0.00 in
09:13 48.6 °F 42.3 °F 30.13 in NNW 5.0 mph 13.0 mph 79 % 0.00 in
09:18 48.6 °F 41.7 °F 30.13 in NW 9.0 mph 13.0 mph 77 % 0.00 in
09:23 48.7 °F 42.3 °F 30.13 in NW 6.0 mph 13.0 mph 78 % 0.00 in
09:28 48.9 °F 42.1 °F 30.13 in WNW 9.0 mph 13.0 mph 77 % 0.00 in
09:33 49.1 °F 42.3 °F 30.13 in NW 4.0 mph 13.0 mph 77 % 0.00 in
09:38 49.5 °F 42.3 °F 30.13 in WNW 6.0 mph 13.0 mph 76 % 0.00 in
09:43 49.6 °F 42.4 °F 30.13 in WNW 8.0 mph 12.0 mph 76 % 0.00 in
09:48 50.0 °F 42.1 °F 30.13 in NNW 5.0 mph 11.0 mph 74 % 0.00 in
09:53 50.2 °F 41.9 °F 30.13 in NW 5.0 mph 14.0 mph 73 % 0.00 in
09:58 50.2 °F 42.3 °F 30.13 in North 9.0 mph 14.0 mph 74 % 0.00 in
10:03 50.0 °F 42.1 °F 30.13 in NNW 3.0 mph 14.0 mph 74 % 0.00 in
10:08 50.2 °F 42.3 °F 30.13 in NW 7.0 mph 14.0 mph 74 % 0.00 in
10:13 51.4 °F 43.5 °F 30.13 in West 4.0 mph 13.0 mph 74 % 0.00 in
10:18 52.0 °F 42.8 °F 30.14 in NW 7.0 mph 12.0 mph 71 % 0.00 in
10:23 52.2 °F 43.0 °F 30.14 in WNW 3.0 mph 15.0 mph 71 % 0.00 in
10:24 52.2 °F 43.0 °F 30.14 in North 5.0 mph 15.0 mph 71 % 0.00 in
10:29 52.5 °F 43.0 °F 30.14 in NNW 6.0 mph 15.0 mph 70 % 0.00 in
10:34 52.5 °F 42.6 °F 30.14 in NW 4.0 mph 15.0 mph 69 % 0.00 in
10:39 52.3 °F 42.1 °F 30.14 in NW 5.0 mph 12.0 mph 68 % 0.00 in
10:44 52.5 °F 42.3 °F 30.14 in NW 4.0 mph 16.0 mph 68 % 0.00 in
10:49 53.6 °F 43.3 °F 30.14 in WNW 6.0 mph 16.0 mph 68 % 0.00 in
10:54 54.7 °F 42.8 °F 30.13 in NW 5.0 mph 16.0 mph 64 % 0.00 in
10:59 54.9 °F 43.0 °F 30.13 in North 7.0 mph 13.0 mph 64 % 0.00 in
11:04 54.9 °F 43.0 °F 30.13 in WNW 10.0 mph 13.0 mph 64 % 0.00 in
11:09 55.0 °F 43.2 °F 30.13 in NNW 9.0 mph 15.0 mph 64 % 0.00 in
11:14 55.6 °F 42.8 °F 30.12 in NW 9.0 mph 15.0 mph 62 % 0.00 in
11:19 55.6 °F 42.8 °F 30.12 in NNW 8.0 mph 20.0 mph 62 % 0.00 in
11:24 55.8 °F 42.4 °F 30.12 in West 5.0 mph 20.0 mph 61 % 0.00 in
11:29 56.1 °F 42.4 °F 30.12 in NW 6.0 mph 20.0 mph 60 % 0.00 in
11:34 56.5 °F 42.8 °F 30.12 in NNW 10.0 mph 14.0 mph 60 % 0.00 in
11:39 56.8 °F 43.5 °F 30.12 in WNW 5.0 mph 16.0 mph 61 % 0.00 in
11:44 57.4 °F 43.2 °F 30.12 in NNW 4.0 mph 16.0 mph 59 % 0.00 in
11:49 57.6 °F 43.0 °F 30.12 in NNW 8.0 mph 16.0 mph 58 % 0.00 in
11:54 57.0 °F 42.4 °F 30.12 in NNW 10.0 mph 15.0 mph 58 % 0.00 in
11:59 57.4 °F 43.2 °F 30.12 in North 9.0 mph 18.0 mph 59 % 0.00 in
12:04 57.6 °F 43.0 °F 30.12 in NW 4.0 mph 18.0 mph 58 % 0.00 in
12:09 57.6 °F 43.0 °F 30.12 in NW 6.0 mph 18.0 mph 58 % 0.00 in
12:14 57.7 °F 43.5 °F 30.12 in WNW 6.0 mph 16.0 mph 59 % 0.00 in
12:19 58.3 °F 43.5 °F 30.12 in North 6.0 mph 16.0 mph 58 % 0.00 in
12:24 58.6 °F 43.5 °F 30.12 in NNW 6.0 mph 14.0 mph 57 % 0.00 in
12:29 58.6 °F 43.0 °F 30.12 in WNW 6.0 mph 12.0 mph 56 % 0.00 in
12:34 58.8 °F 43.2 °F 30.12 in NNW 5.0 mph 12.0 mph 56 % 0.00 in
12:39 59.2 °F 43.5 °F 30.11 in WNW 12.0 mph 12.0 mph 56 % 0.00 in
12:44 58.8 °F 43.2 °F 30.11 in NNW 3.0 mph 13.0 mph 56 % 0.00 in
12:49 59.0 °F 42.8 °F 30.11 in NW 5.0 mph 13.0 mph 55 % 0.00 in
12:55 59.2 °F 43.5 °F 30.10 in NNW 6.0 mph 13.0 mph 56 % 0.00 in
13:00 59.2 °F 43.0 °F 30.10 in NW 8.0 mph 12.0 mph 55 % 0.00 in
13:05 59.0 °F 42.8 °F 30.10 in North 4.0 mph 12.0 mph 55 % 0.00 in
13:10 59.5 °F 43.9 °F 30.10 in NNW 6.0 mph 12.0 mph 56 % 0.00 in
13:15 59.7 °F 44.1 °F 30.10 in North 5.0 mph 12.0 mph 56 % 0.00 in
13:20 60.1 °F 42.4 °F 30.10 in NW 7.0 mph 15.0 mph 52 % 0.00 in
13:25 59.5 °F 42.4 °F 30.09 in NNW 5.0 mph 15.0 mph 53 % 0.00 in
13:30 59.7 °F 43.0 °F 30.09 in NW 3.0 mph 15.0 mph 54 % 0.00 in
13:35 60.1 °F 43.0 °F 30.09 in North 6.0 mph 13.0 mph 53 % 0.00 in
13:40 60.6 °F 43.3 °F 30.09 in NNW 7.0 mph 13.0 mph 53 % 0.00 in
13:45 61.3 °F 43.0 °F 30.09 in NW 4.0 mph 13.0 mph 51 % 0.00 in
13:50 61.5 °F 42.3 °F 30.08 in NNW 5.0 mph 13.0 mph 49 % 0.00 in
13:55 61.2 °F 42.4 °F 30.08 in NNE 6.0 mph 13.0 mph 50 % 0.00 in
14:00 61.0 °F 42.8 °F 30.08 in NNE 8.0 mph 13.0 mph 51 % 0.00 in
14:05 61.2 °F 43.0 °F 30.08 in NNW 6.0 mph 13.0 mph 51 % 0.00 in
14:10 61.5 °F 42.3 °F 30.07 in NW 9.0 mph 9.0 mph 49 % 0.00 in
14:25 61.5 °F 41.7 °F 30.07 in NNW 11.0 mph 13.0 mph 48 % 0.00 in
14:30 61.5 °F 40.5 °F 30.08 in NNW 7.0 mph 16.0 mph 46 % 0.00 in
14:35 61.9 °F 41.4 °F 30.07 in WNW 9.0 mph 16.0 mph 47 % 0.00 in
14:40 61.3 °F 41.0 °F 30.07 in NW 3.0 mph 16.0 mph 47 % 0.00 in
14:45 61.0 °F 39.6 °F 30.07 in NW 5.0 mph 15.0 mph 45 % 0.00 in
14:50 61.3 °F 40.5 °F 30.07 in NNW 1.0 mph 15.0 mph 46 % 0.00 in
14:55 62.1 °F 40.5 °F 30.06 in NW 3.0 mph 15.0 mph 45 % 0.00 in
15:00 62.8 °F 41.7 °F 30.06 in NW 7.0 mph 11.0 mph 46 % 0.00 in
15:05 63.0 °F 40.6 °F 30.06 in North 8.0 mph 12.0 mph 44 % 0.00 in
15:10 63.1 °F 40.3 °F 30.06 in WNW 7.0 mph 12.0 mph 43 % 0.00 in
15:15 63.1 °F 39.7 °F 30.07 in NW 8.0 mph 13.0 mph 42 % 0.00 in
15:20 63.1 °F 39.0 °F 30.06 in NNW 4.0 mph 13.0 mph 41 % 0.00 in
15:25 63.3 °F 39.9 °F 30.06 in WNW 4.0 mph 13.0 mph 42 % 0.00 in
15:30 63.0 °F 38.8 °F 30.06 in WNW 4.0 mph 13.0 mph 41 % 0.00 in
15:35 62.6 °F 39.7 °F 30.06 in SW 3.0 mph 13.0 mph 43 % 0.00 in
15:40 62.4 °F 39.0 °F 30.06 in WNW 7.0 mph 13.0 mph 42 % 0.00 in
15:45 62.8 °F 39.4 °F 30.06 in WNW 5.0 mph 12.0 mph 42 % 0.00 in
15:50 62.4 °F 39.6 °F 30.06 in NNW 2.0 mph 12.0 mph 43 % 0.00 in
15:55 62.8 °F 40.5 °F 30.06 in WSW 1.0 mph 12.0 mph 44 % 0.00 in
16:00 63.1 °F 40.3 °F 30.06 in NW 2.0 mph 7.0 mph 43 % 0.00 in
16:05 63.3 °F 39.9 °F 30.06 in NW 4.0 mph 9.0 mph 42 % 0.00 in
16:10 63.0 °F 38.3 °F 30.06 in NW 11.0 mph 11.0 mph 40 % 0.00 in
16:16 62.6 °F 38.5 °F 30.06 in NW 7.0 mph 12.0 mph 41 % 0.00 in
16:21 62.4 °F 39.0 °F 30.06 in ESE 2.0 mph 12.0 mph 42 % 0.00 in
16:26 63.0 °F 38.8 °F 30.06 in NNW 3.0 mph 12.0 mph 41 % 0.00 in
16:31 62.8 °F 38.7 °F 30.06 in West 7.0 mph 12.0 mph 41 % 0.00 in
16:36 63.0 °F 38.8 °F 30.06 in NW 3.0 mph 10.0 mph 41 % 0.00 in
16:41 63.0 °F 38.8 °F 30.06 in NNW 3.0 mph 10.0 mph 41 % 0.00 in
16:46 63.1 °F 37.0 °F 30.06 in NW 2.0 mph 10.0 mph 38 % 0.00 in
16:51 63.3 °F 37.2 °F 30.06 in NNW 3.0 mph 10.0 mph 38 % 0.00 in
16:56 63.0 °F 37.6 °F 30.06 in North 10.0 mph 12.0 mph 39 % 0.00 in
17:01 63.0 °F 37.6 °F 30.06 in NW 6.0 mph 12.0 mph 39 % 0.00 in
17:06 62.8 °F 37.4 °F 30.06 in NW 6.0 mph 12.0 mph 39 % 0.00 in
17:11 62.8 °F 37.4 °F 30.06 in NNW 4.0 mph 10.0 mph 39 % 0.00 in
17:16 62.8 °F 37.4 °F 30.06 in NNW 4.0 mph 9.0 mph 39 % 0.00 in
17:21 62.8 °F 37.4 °F 30.06 in WNW 2.0 mph 8.0 mph 39 % 0.00 in
17:26 62.4 °F 37.2 °F 30.06 in NW 6.0 mph 8.0 mph 39 % 0.00 in
17:31 62.2 °F 37.6 °F 30.06 in NW 3.0 mph 9.0 mph 40 % 0.00 in
17:36 61.9 °F 37.2 °F 30.06 in WNW 5.0 mph 10.0 mph 40 % 0.00 in
17:41 61.7 °F 37.2 °F 30.06 in NNW 5.0 mph 10.0 mph 40 % 0.00 in
17:46 61.5 °F 37.0 °F 30.06 in NW 4.0 mph 10.0 mph 40 % 0.00 in
17:51 61.2 °F 36.7 °F 30.06 in NNW 4.0 mph 7.0 mph 40 % 0.00 in
17:56 61.0 °F 37.0 °F 30.06 in NNW 5.0 mph 8.0 mph 41 % 0.00 in
18:01 60.6 °F 36.9 °F 30.06 in NW 1.0 mph 8.0 mph 41 % 0.00 in
18:06 60.4 °F 36.7 °F 30.06 in NNW 1.0 mph 8.0 mph 41 % 0.00 in
18:11 60.3 °F 36.5 °F 30.06 in NW 4.0 mph 8.0 mph 41 % 0.00 in
18:16 60.1 °F 36.9 °F 30.06 in NNW 5.0 mph 8.0 mph 42 % 0.00 in
18:21 59.7 °F 37.2 °F 30.06 in NNW 3.0 mph 8.0 mph 43 % 0.00 in
18:26 59.5 °F 37.0 °F 30.06 in NW 2.0 mph 6.0 mph 43 % 0.00 in
18:31 59.4 °F 36.9 °F 30.07 in NW 2.0 mph 5.0 mph 43 % 0.00 in
18:36 59.0 °F 37.0 °F 30.07 in NW 1.0 mph 5.0 mph 44 % 0.00 in
18:37 59.0 °F 37.0 °F 30.07 in WNW 1.0 mph 5.0 mph 44 % 0.00 in
18:42 58.6 °F 36.9 °F 30.07 in NW 1.0 mph 5.0 mph 44 % 0.00 in
18:47 58.5 °F 37.2 °F 30.07 in NW 2.0 mph 5.0 mph 45 % 0.00 in
18:52 58.3 °F 37.0 °F 30.07 in NW 1.0 mph 5.0 mph 45 % 0.00 in
18:57 58.1 °F 36.9 °F 30.08 in NW 1.0 mph 3.0 mph 45 % 0.00 in
19:02 57.7 °F 37.0 °F 30.08 in NNW 1.0 mph 3.0 mph 46 % 0.00 in
19:07 57.6 °F 36.9 °F 30.08 in WNW 1.0 mph 3.0 mph 46 % 0.00 in
19:12 57.4 °F 36.7 °F 30.09 in NW 2.0 mph 3.0 mph 46 % 0.00 in
19:17 57.4 °F 36.7 °F 30.09 in Calm   5.0 mph 46 % 0.00 in
19:22 57.0 °F 36.5 °F 30.09 in NW 1.0 mph 5.0 mph 46 % 0.00 in
19:27 57.0 °F 36.0 °F 30.09 in NNW 2.0 mph 5.0 mph 45 % 0.00 in
19:32 56.8 °F 36.3 °F 30.10 in NW 1.0 mph 4.0 mph 46 % 0.00 in
19:37 56.7 °F 36.1 °F 30.10 in NNW 1.0 mph 4.0 mph 46 % 0.00 in
19:42 56.3 °F 35.8 °F 30.10 in Calm   4.0 mph 46 % 0.00 in
19:47 55.9 °F 36.0 °F 30.10 in Calm   2.0 mph 47 % 0.00 in
19:52 55.2 °F 36.3 °F 30.11 in Calm   2.0 mph 49 % 0.00 in
19:57 54.7 °F 36.3 °F 30.11 in Calm   1.0 mph 50 % 0.00 in
20:02 54.1 °F 36.3 °F 30.11 in Calm     51 % 0.00 in
20:07 53.8 °F 37.0 °F 30.11 in Calm   1.0 mph 53 % 0.00 in
20:12 53.2 °F 37.0 °F 30.11 in Calm   1.0 mph 54 % 0.00 in
20:17 52.7 °F 37.0 °F 30.12 in Calm   1.0 mph 55 % 0.00 in
20:22 52.5 °F 36.9 °F 30.12 in Calm   1.0 mph 55 % 0.00 in
20:27 52.2 °F 36.9 °F 30.12 in Calm   1.0 mph 56 % 0.00 in
20:32 52.2 °F 36.9 °F 30.12 in Calm   1.0 mph 56 % 0.00 in
20:37 52.0 °F 36.9 °F 30.12 in Calm   1.0 mph 56 % 0.00 in
20:42 52.0 °F 36.9 °F 30.12 in Calm   1.0 mph 56 % 0.00 in
20:47 52.0 °F 37.2 °F 30.12 in WNW 1.0 mph 1.0 mph 57 % 0.00 in
20:52 52.3 °F 37.0 °F 30.12 in Calm   2.0 mph 56 % 0.00 in
20:57 52.5 °F 36.9 °F 30.12 in NNW 3.0 mph 3.0 mph 55 % 0.00 in
21:02 53.2 °F 37.0 °F 30.12 in NW 2.0 mph 4.0 mph 54 % 0.00 in
21:07 53.6 °F 36.9 °F 30.12 in NW 3.0 mph 5.0 mph 53 % 0.00 in
21:13 53.8 °F 37.0 °F 30.12 in NW 3.0 mph 5.0 mph 53 % 0.00 in
21:18 53.8 °F 37.0 °F 30.13 in NW 2.0 mph 5.0 mph 53 % 0.00 in
21:23 53.6 °F 36.9 °F 30.13 in NW 1.0 mph 5.0 mph 53 % 0.00 in
21:28 53.4 °F 37.2 °F 30.13 in NW 1.0 mph 5.0 mph 54 % 0.00 in
21:33 53.2 °F 37.0 °F 30.13 in NW 1.0 mph 4.0 mph 54 % 0.00 in
21:38 52.9 °F 37.2 °F 30.13 in Calm   4.0 mph 55 % 0.00 in
21:43 52.3 °F 37.0 °F 30.13 in Calm   4.0 mph 56 % 0.00 in
21:48 51.8 °F 37.0 °F 30.13 in Calm   1.0 mph 57 % 0.00 in
21:53 51.3 °F 37.0 °F 30.13 in Calm   1.0 mph 58 % 0.00 in
21:58 51.1 °F 37.2 °F 30.13 in Calm   1.0 mph 59 % 0.00 in
22:03 51.3 °F 37.4 °F 30.13 in Calm   1.0 mph 59 % 0.00 in
22:08 51.3 °F 37.8 °F 30.13 in Calm   2.0 mph 60 % 0.00 in
22:13 50.9 °F 37.6 °F 30.13 in Calm   2.0 mph 60 % 0.00 in
22:18 50.4 °F 37.4 °F 30.13 in Calm   2.0 mph 61 % 0.00 in
22:23 49.6 °F 37.2 °F 30.14 in Calm   2.0 mph 62 % 0.00 in
22:28 49.1 °F 37.4 °F 30.14 in Calm     64 % 0.00 in
22:33 48.6 °F 37.4 °F 30.14 in Calm     65 % 0.00 in
22:38 48.2 °F 37.4 °F 30.14 in Calm     66 % 0.00 in
22:43 47.8 °F 37.4 °F 30.14 in Calm     67 % 0.00 in
22:48 47.7 °F 37.6 °F 30.14 in Calm     68 % 0.00 in
22:53 47.5 °F 37.4 °F 30.14 in Calm     68 % 0.00 in
22:58 47.1 °F 37.4 °F 30.14 in Calm     69 % 0.00 in
23:03 46.9 °F 37.2 °F 30.14 in Calm     69 % 0.00 in
23:08 46.9 °F 37.6 °F 30.14 in Calm     70 % 0.00 in
23:13 46.8 °F 37.9 °F 30.14 in Calm     71 % 0.00 in
23:18 46.8 °F 37.9 °F 30.15 in Calm     71 % 0.00 in
23:23 46.8 °F 38.3 °F 30.14 in Calm   1.0 mph 72 % 0.00 in
23:28 46.4 °F 37.6 °F 30.15 in Calm   1.0 mph 71 % 0.00 in
23:33 45.9 °F 37.0 °F 30.14 in Calm   1.0 mph 71 % 0.00 in
23:38 45.7 °F 37.9 °F 30.14 in Calm   1.0 mph 74 % 0.00 in
23:43 45.7 °F 37.9 °F 30.14 in Calm   1.0 mph 74 % 0.00 in
23:48 45.7 °F 38.3 °F 30.14 in Calm   1.0 mph 75 % 0.00 in
23:53 45.5 °F 38.1 °F 30.14 in Calm   1.0 mph 75 % 0.00 in
23:58 45.7 °F 37.9 °F 30.14 in Calm   1.0 mph 74 % 0.00 in
Spring, Texas: Villages of Bridgestone
Compliments of Weather Underground - 2.75 mb

Script developed by  Jim McMurry - jmcmurry@mwt.net Adapted for the template by  Wim van der Kuil - Leuven-Template.eu

You find our weather info also at:

UK Metoffice

WeatherCloud

Weather Underground

Mid-South Weather Network

AWEKAS

Citizen Weather Observer Program (CWOP)

HAMweather, WeatherForYou, PWS Weather

Equipment we use:

Weather-station
Davis Vantage Vue

Weather-program
Meteohub

Weather-server
Debian 7.9 x86 (Guest)

Provider
DreamHost

Davis Vantage Vue

Meteohub

Debian 7.9 x86 (Guest)

DreamHost